World > North America > United States > Texas > Pilot Knob  

Pilot Knob, TX Hourly Weather Updates

Feedback E-mail the Weather

Quick Clicks

Pilot Knob, TX Weather Maps

°F °C°F °C
Pilot Knob Weather Map
UTC Time: 4/21/2024, 17:05
Your Time:

Pilot Knob, TX Regional Weather

Expires:202404211800;;138298
ASUS44 KSJT 211705
RWRSJT
WEST CENTRAL TEXAS REGIONAL WEATHER ROUNDUP
NATIONAL WEATHER SERVICE SAN ANGELO TX
1200 PM CDT SUN APR 21 2024

NOTE: "FAIR" INDICATES FEW OR NO CLOUDS BELOW 12,000 FEET WITH NO
SIGNIFICANT WEATHER AND/OR OBSTRUCTIONS TO VISIBILITY.


TXZ145-158-159-173-191-192-194-205-207-220-223-211800-
CENTRAL AND SOUTH CENTRAL TEXAS
  
CITY           SKY/WX    TMP DP  RH WIND       PRES   REMARKS
AUSTIN/BERGSTM PTSUNNY   63  49  60 N17G26    30.30R TC  17           
WACO           SUNNY     63  48  58 N16G28    30.33F TC  17           
HILLSBORO      SUNNY     60  48  62 NE10      30.35S TC  16           
TEMPLE         MOSUNNY   60  48  64 NE13G18   30.34R TC  16           
KILLEEN-GRAY   SUNNY     62  45  53 NE13G21   30.32S TC  17           
FORT HOOD      MOSUNNY   62  47  56 NE13      30.33S TC  17           
GEORGETOWN     PTSUNNY   62  45  53 N15G21    30.34R TC  17           
LAGO VISTA     CLOUDY    60  47  64 NE6G17    30.32S TC  15           
SAN MARCOS     MOSUNNY   63  52  67 NE21G26   30.30F TC  17           
NEW BRAUNFELS  PTSUNNY   63  50  62 N20G26    30.27F TC  17           
RANDOLPH AFB   MOSUNNY   62  49  62 N18G24    30.25S TC  16           
SAN ANTONIO    PTSUNNY   62  50  64 NE15G26   30.28S TC  17           
STINSON        MOSUNNY   63  50  62 NE17G26   30.25S TC  17           
PLEASANTON     NOT AVBL                                               
LA GRANGE      CLOUDY    59  54  84 N12       30.28S TC  15           
GIDDINGS       NOT AVBL                                               
$$


SKY/WX - Weather  TMP - Temperature  DP - Dew Point  RH - Humidity
WIND - Wind Direction/Speed PRES - Barometric Pressure VSB - Visibility
WCI - Wind Chill Index E13G22 Wind - East Wind 13 mph/Gusts of 22 mph

Trending Headlines

Trending Entertainment Headlines

Pilot Knob Radar Loop

Use the map search tool if you want to place a location marker on the radar map...

Pilot Knob Quick Facts

National Two Day Weather Forecast


E-mail the Pilot Knob Weather Forecast

Voice your opinion or tell us about page issues...